FW8528 Weather Reports


Display with metric or nautical units.
time (UTC)temp
F
wind
direction
speed
MPH
gust
MPH
rain 1hr
in
rain 24hr
in
rain mn
in
humidity
%
barometer
mb
20260507185404 57 268 0.0 0.0 0.00 0.00 0.00 79 1019.6
20260507184901 57 178 2.0 2.0 0.00 0.00 0.00 80 1019.3
20260507184400 57 307 0.0 1.0 0.00 0.00 0.00 82 1019.6
20260507183856 57 137 2.0 3.0 0.00 0.00 0.00 81 1019.6
20260507183353 57 198 2.0 5.0 0.00 0.00 0.00 82 1019.3
20260507182851 55 189 0.0 0.0 0.00 0.00 0.00 84 1019.9
20260507182346 55 134 1.0 2.0 0.00 0.00 0.00 85 1019.6
20260507181843 55 234 0.0 0.0 0.00 0.00 0.00 86 1019.6
20260507181338 56 248 0.0 0.0 0.00 0.00 0.00 86 1019.6
20260507180836 55 195 1.0 1.0 0.00 0.00 0.00 85 1019.6
20260507180333 55 244 0.0 0.0 0.00 0.00 0.00 85 1019.6
20260507175828 54 245 0.0 0.0 0.00 0.00 0.00 87 1019.9
20260507175325 54 262 0.0 0.0 0.00 0.00 0.00 91 1019.9
20260507174823 53 197 0.0 1.0 0.00 0.00 0.00 91 1019.6
20260507174320 53 286 2.0 2.0 0.00 0.00 0.00 90 1019.9
20260507173817 53 229 0.0 0.0 0.00 0.00 0.00 90 1019.6
20260507173315 53 281 1.0 1.0 0.00 0.00 0.00 91 1019.6
20260507172811 53 272 0.0 0.0 0.00 0.00 0.00 91 1019.9
20260507172308 52 308 1.0 1.0 0.00 0.00 0.00 92 1019.9
20260507171803 53 132 0.0 1.0 0.00 0.00 0.00 92 1019.6
20260507171301 53 203 1.0 1.0 0.00 0.00 0.00 92 1019.6
20260507170757 53 225 1.0 1.0 0.00 0.00 0.00 93 1019.9
20260507170254 52 217 0.0 1.0 0.00 0.00 0.00 92 1019.9
20260507165750 52 263 0.0 0.0 0.00 0.00 0.00 93 1019.9
20260507165246 52 175 2.0 2.0 0.00 0.00 0.00 93 1019.6
20260507164742 52 131 1.0 1.0 0.00 0.00 0.00 94 1019.6
20260507164239 52 224 1.0 1.0 0.00 0.00 0.00 93 1019.9
20260507163736 52 248 0.0 0.0 0.00 0.00 0.00 95 1019.9
20260507163234 51 232 0.0 0.0 0.00 0.00 0.00 96 1019.6
20260507162730 51 305 0.0 0.0 0.00 0.00 0.00 96 1019.9
20260507162226 51 287 0.0 0.0 0.00 0.00 0.00 97 1019.9
20260507161723 50 230 0.0 0.0 0.00 0.00 0.00 97 1019.9
20260507161220 51 213 0.0 0.0 0.00 0.00 0.00 98 1019.9
20260507160715 50 225 0.0 0.0 0.00 0.00 0.00 98 1019.6
20260507160212 50 139 1.0 1.0 0.00 0.00 0.00 99 1019.9
20260507155708 50 164 2.0 2.0 0.00 0.00 0.00 99 1019.9
20260507155204 50 175 1.0 2.0 0.00 0.00 0.00 99 1019.9
20260507154701 50 242 0.0 0.0 0.00 0.00 0.00 99 1019.9
20260507154159 50 232 0.0 1.0 0.00 0.00 0.00 99 1019.9
20260507153655 50 221 1.0 2.0 0.00 0.00 0.00 99 1019.9
20260507153151 50 211 0.0 1.0 0.00 0.00 0.00 99 1019.9
20260507152648 50 208 2.0 3.0 0.00 0.00 0.00 99 1019.9
20260507152144 50 213 2.0 2.0 0.00 0.00 0.00 99 1019.9
20260507151640 49 261 1.0 1.0 0.00 0.00 0.00 99 1020.4
20260507151137 49 201 1.0 1.0 0.00 0.00 0.00 99 1019.6
20260507150634 49 218 0.0 0.0 0.00 0.00 0.00 99 1020.4
20260507150131 49 208 1.0 1.0 0.00 0.00 0.00 99 1019.9
20260507145626 49 207 1.0 1.0 0.00 0.00 0.00 99 1019.9
20260507145124 49 242 0.0 0.0 0.00 0.00 0.00 99 1019.6
20260507144620 49 212 1.0 1.0 0.00 0.00 0.00 99 1019.9
20260507144119 49 238 0.0 1.0 0.00 0.00 0.00 99 1019.6
20260507143614 49 271 0.0 0.0 0.00 0.00 0.00 99 1019.9
20260507143112 49 200 0.0 1.0 0.00 0.00 0.00 99 1019.9
20260507142607 49 216 0.0 0.0 0.00 0.00 0.00 99 1019.6
20260507142104 48 257 0.0 0.0 0.00 0.00 0.00 99 1019.9
20260507141600 48 235 0.0 0.0 0.00 0.00 0.00 99 1019.9
20260507141057 48 161 2.0 2.0 0.00 0.00 0.00 99 1019.9
20260507140554 48 238 0.0 0.0 0.00 0.00 0.00 99 1019.9
20260507140051 48 148 1.0 2.0 0.00 0.00 0.00 99 1019.6
20260507135548 48 224 0.0 0.0 0.00 0.00 0.00 99 1019.6
20260507135045 48 239 0.0 0.0 0.00 0.00 0.00 99 1019.6
20260507134542 48 237 0.0 0.0 0.00 0.00 0.00 99 1019.6
20260507134037 48 196 1.0 1.0 0.00 0.00 0.00 99 1019.6
20260507133534 48 227 0.0 1.0 0.00 0.00 0.00 99 1019.6
20260507133032 48 242 0.0 0.0 0.00 0.00 0.00 99 1019.6
20260507132528 48 227 0.0 0.0 0.00 0.00 0.00 99 1019.6
20260507132025 48 190 1.0 1.0 0.00 0.00 0.00 99 1019.6
20260507131522 48 227 0.0 0.0 0.00 0.00 0.00 99 1019.6
20260507131019 48 226 0.0 0.0 0.00 0.00 0.00 99 1019.6
20260507130516 48 214 0.0 1.0 0.00 0.00 0.00 99 1019.3
20260507130014 48 246 0.0 0.0 0.00 0.00 0.00 99 1019.3
20260507125512 48 246 0.0 0.0 0.00 0.00 0.00 99 1019.6
20260507125011 48 246 0.0 0.0 0.00 0.00 0.00 99 1019.3
20260507124506 48 246 0.0 0.0 0.00 0.00 0.00 99 1019.6
20260507124004 48 272 0.0 0.0 0.00 0.00 0.00 99 1019.6
20260507123501 48 223 0.0 0.0 0.00 0.00 0.00 99 1019.3
20260507122957 48 255 0.0 0.0 0.00 0.00 0.00 99 1019.9
20260507122453 47 249 0.0 0.0 0.00 0.00 0.00 99 1019.6
20260507121949 48 250 0.0 0.0 0.00 0.00 0.00 99 1019.6
20260507121444 48 189 1.0 1.0 0.00 0.00 0.00 99 1019.6
20260507120941 48 236 0.0 0.0 0.00 0.00 0.00 99 1019.6
20260507120438 48 214 1.0 1.0 0.00 0.00 0.00 99 1019.9
20260507115934 48 194 1.0 2.0 0.00 0.00 0.00 99 1019.9
20260507115430 48 140 0.0 1.0 0.00 0.00 0.00 99 1019.6
20260507114926 48 206 0.0 1.0 0.00 0.00 0.00 99 1019.9
20260507114423 48 190 1.0 1.0 0.00 0.00 0.00 99 1019.9
20260507113920 48 231 0.0 0.0 0.00 0.00 0.00 99 1019.9
20260507113417 48 237 1.0 1.0 0.00 0.00 0.00 99 1019.9
20260507112914 49 134 2.0 2.0 0.00 0.00 0.00 99 1019.9
20260507112412 49 224 1.0 1.0 0.00 0.00 0.00 99 1019.9
20260507111909 49 238 0.0 0.0 0.00 0.00 0.00 99 1019.6
20260507111406 49 203 0.0 1.0 0.00 0.00 0.00 99 1019.9
20260507110902 49 224 0.0 0.0 0.00 0.00 0.00 99 1019.6
20260507110358 49 239 0.0 0.0 0.00 0.00 0.00 99 1019.9
20260507105855 49 237 0.0 0.0 0.00 0.00 0.00 99 1019.9
20260507105352 49 189 1.0 1.0 0.00 0.00 0.00 99 1019.9
20260507104849 49 204 1.0 2.0 0.00 0.00 0.00 99 1019.9
20260507104345 49 219 0.0 0.0 0.00 0.00 0.00 99 1019.9
20260507103841 49 204 1.0 1.0 0.00 0.00 0.00 99 1019.9
20260507103338 49 225 1.0 1.0 0.00 0.00 0.00 99 1019.9
20260507102834 50 179 2.0 2.0 0.00 0.00 0.00 99 1020.4
20260507102331 50 217 0.0 1.0 0.00 0.00 0.00 99 1019.9
20260507101828 50 197 1.0 1.0 0.00 0.00 0.00 99 1019.9
20260507101327 50 203 1.0 1.0 0.00 0.00 0.00 99 1019.9
20260507100825 50 123 0.0 0.0 0.00 0.00 0.00 99 1020.4
20260507100323 50 210 0.0 1.0 0.00 0.00 0.00 99 1019.9
20260507095821 50 220 0.0 0.0 0.00 0.00 0.00 99 1019.9
20260507095317 50 220 0.0 0.0 0.00 0.00 0.00 99 1019.9
20260507094814 50 219 0.0 0.0 0.00 0.00 0.00 99 1019.9
20260507094311 50 220 0.0 0.0 0.00 0.00 0.00 99 1019.9
20260507093808 51 205 1.0 1.0 0.00 0.00 0.00 99 1019.9
20260507093306 50 246 0.0 0.0 0.00 0.00 0.00 99 1019.9
20260507092804 50 210 1.0 1.0 0.00 0.00 0.00 99 1019.9
20260507092300 50 254 0.0 0.0 0.00 0.00 0.00 99 1019.9
20260507091756 51 244 0.0 0.0 0.00 0.00 0.00 99 1020.4
20260507091253 51 236 0.0 0.0 0.00 0.00 0.00 99 1019.9
20260507090753 51 200 0.0 0.0 0.00 0.00 0.00 99 1019.9
20260507090250 51 200 0.0 0.0 0.00 0.00 0.00 99 1019.9
20260507085747 51 200 0.0 0.0 0.00 0.00 0.00 99 1019.9
20260507085244 51 200 0.0 0.0 0.00 0.00 0.00 99 1019.9
20260507084742 50 200 0.0 0.0 0.00 0.00 0.00 99 1019.9
20260507084238 50 200 0.0 0.0 0.00 0.00 0.00 99 1020.4
20260507083735 50 200 0.0 0.0 0.00 0.00 0.00 99 1019.9
20260507083232 50 201 1.0 1.0 0.00 0.00 0.00 99 1019.9
20260507082728 51 198 1.0 1.0 0.00 0.00 0.00 99 1020.4
20260507082224 51 221 0.0 0.0 0.00 0.00 0.00 99 1020.4
20260507081721 51 224 0.0 0.0 0.00 0.00 0.00 99 1019.9
20260507081217 51 224 0.0 0.0 0.00 0.00 0.00 99 1020.4
20260507080714 51 224 0.0 0.0 0.00 0.00 0.00 99 1020.4
20260507080210 51 224 0.0 0.0 0.00 0.00 0.00 99 1020.4
20260507075705 51 224 0.0 1.0 0.00 0.00 0.00 99 1019.9
20260507075202 51 212 0.0 0.0 0.00 0.00 0.00 99 1020.4
20260507074658 51 220 0.0 0.0 0.00 0.00 0.00 99 1019.9
20260507074157 51 203 0.0 1.0 0.00 0.00 0.00 99 1019.9
20260507073653 51 220 1.0 1.0 0.00 0.00 0.00 99 1019.9
20260507073149 51 212 0.0 0.0 0.00 0.00 0.00 99 1019.9
20260507072647 51 203 0.0 0.0 0.00 0.00 0.00 99 1019.9
20260507072144 51 214 0.0 1.0 0.00 0.00 0.00 99 1019.9
20260507071642 51 224 0.0 0.0 0.00 0.00 0.00 99 1019.9
20260507071138 51 242 0.0 0.0 0.00 0.00 0.00 99 1019.6
20260507070635 51 245 0.0 0.0 0.00 0.00 0.00 99 1019.9
20260507070132 51 220 0.0 0.0 0.00 0.00 0.00 99 1019.9
20260507065628 51 221 0.0 0.0 0.00 0.01 0.01 99 1019.9
20260507065125 52 221 0.0 0.0 0.00 0.01 0.01 99 1019.9
20260507064623 52 223 0.0 0.0 0.00 0.01 0.01 99 1019.9
20260507064121 51 212 0.0 0.0 0.00 0.01 0.01 99 1019.9
20260507063618 51 228 0.0 0.0 0.00 0.01 0.01 99 1019.9
20260507063115 52 231 0.0 0.0 0.00 0.01 0.01 99 1019.9
20260507062612 52 214 0.0 0.0 0.00 0.01 0.01 99 1019.9
20260507062110 52 205 0.0 1.0 0.00 0.01 0.01 99 1019.9
20260507061607 52 216 0.0 1.0 0.00 0.01 0.01 99 1019.6
20260507061105 52 218 0.0 0.0 0.00 0.01 0.01 99 1019.9
20260507060603 52 215 1.0 1.0 0.00 0.01 0.01 99 1019.9
20260507060059 52 217 0.0 0.0 0.00 0.01 0.01 99 1019.9
20260507055554 52 225 0.0 0.0 0.00 0.01 0.01 99 1019.9
20260507055051 52 228 0.0 0.0 0.00 0.01 0.01 99 1019.9
20260507054547 52 232 0.0 0.0 0.00 0.01 0.01 99 1019.9
20260507054044 52 237 0.0 0.0 0.00 0.01 0.01 99 1019.9
20260507053542 52 236 0.0 0.0 0.00 0.01 0.01 99 1019.9
20260507053040 52 199 0.0 1.0 0.00 0.01 0.01 99 1019.9
20260507052537 52 224 0.0 0.0 0.00 0.01 0.01 99 1019.9
20260507052034 52 228 0.0 1.0 0.00 0.01 0.01 99 1020.4
20260507051532 52 246 0.0 0.0 0.00 0.01 0.01 99 1019.9
20260507051028 53 201 0.0 1.0 0.00 0.01 0.01 99 1019.9
20260507050525 53 234 1.0 1.0 0.00 0.01 0.01 99 1019.9
20260507050022 53 225 0.0 0.0 0.00 0.01 0.01 99 1019.9
20260507045518 53 227 0.0 0.0 0.00 0.01 0.01 99 1019.9
20260507045016 53 218 0.0 1.0 0.00 0.01 0.01 98 1019.9
20260507044512 53 254 0.0 0.0 0.00 0.01 0.01 98 1020.4
20260507044009 53 245 0.0 0.0 0.00 0.01 0.01 98 1019.9
20260507043505 53 247 0.0 0.0 0.00 0.01 0.01 97 1019.6
20260507043001 53 229 0.0 0.0 0.00 0.01 0.01 97 1019.9
20260507042458 53 230 0.0 0.0 0.00 0.01 0.01 97 1019.9
20260507041954 53 234 0.0 0.0 0.00 0.01 0.01 97 1019.6
20260507041451 53 230 1.0 1.0 0.00 0.01 0.01 96 1019.9
20260507040948 53 228 0.0 0.0 0.00 0.01 0.01 96 1019.9
20260507040443 53 227 0.0 0.0 0.00 0.01 0.01 96 1019.9
20260507035939 53 119 1.0 1.0 0.00 0.01 0.01 95 1019.6
20260507035436 54 203 1.0 1.0 0.00 0.01 0.01 94 1019.6
20260507034933 54 251 0.0 0.0 0.00 0.01 0.01 93 1019.6
20260507034430 54 237 1.0 1.0 0.00 0.01 0.01 93 1019.6
20260507033928 54 234 0.0 0.0 0.00 0.01 0.01 94 1019.3
20260507033426 54 236 0.0 0.0 0.00 0.01 0.01 93 1019.6
20260507032922 54 190 0.0 1.0 0.00 0.01 0.01 94 1019.3
20260507032419 54 195 1.0 1.0 0.00 0.01 0.01 92 1019.6
20260507031915 54 190 0.0 1.0 0.00 0.01 0.01 93 1019.3
20260507031412 54 199 1.0 1.0 0.00 0.01 0.01 92 1019.3
20260507030909 55 232 0.0 0.0 0.00 0.01 0.01 92 1019.3
20260507030406 55 153 1.0 1.0 0.00 0.01 0.01 91 1019.6
20260507025903 55 225 2.0 2.0 0.00 0.01 0.01 91 1019.3
20260507025401 55 180 3.0 3.0 0.00 0.01 0.01 91 1019.3
20260507024858 55 178 3.0 3.0 0.00 0.01 0.01 91 1018.9
20260507024355 55 207 0.0 1.0 0.00 0.01 0.01 90 1019.3
20260507023851 55 219 2.0 2.0 0.00 0.01 0.01 91 1018.9
20260507023348 55 167 1.0 1.0 0.00 0.01 0.01 90 1018.9
20260507022845 55 265 0.0 0.0 0.00 0.01 0.01 90 1018.9
20260507022342 56 234 1.0 1.0 0.00 0.01 0.01 89 1018.9
20260507021837 56 210 1.0 1.0 0.00 0.01 0.01 89 1018.9
20260507021333 56 226 0.0 0.0 0.00 0.01 0.01 88 1018.9
20260507020831 56 277 0.0 0.0 0.00 0.01 0.01 88 1018.9
20260507020328 56 278 0.0 0.0 0.00 0.01 0.01 88 1019.3
20260507015825 56 235 0.0 0.0 0.00 0.01 0.01 87 1019.3
20260507015323 56 238 0.0 0.0 0.00 0.01 0.01 87 1019.3
20260507014820 57 144 1.0 2.0 0.00 0.01 0.01 86 1019.3
20260507014316 57 165 1.0 2.0 0.00 0.01 0.01 86 1018.9
20260507013812 57 165 0.0 1.0 0.00 0.01 0.01 84 1019.3
20260507013310 57 234 1.0 2.0 0.00 0.01 0.01 84 1018.9
20260507012807 57 122 2.0 2.0 0.00 0.01 0.01 84 1018.9
20260507012306 57 235 0.0 0.0 0.00 0.01 0.01 86 1018.9
20260507011800 57 204 0.0 0.0 0.00 0.01 0.01 85 1019.3
20260507011257 57 213 1.0 1.0 0.00 0.01 0.01 84 1018.9
20260507010756 57 182 1.0 1.0 0.00 0.01 0.01 84 1018.9
20260507010252 57 189 1.0 1.0 0.00 0.01 0.01 83 1018.9
20260507005750 57 222 0.0 0.0 0.00 0.01 0.01 85 1019.3
20260507005246 57 225 0.0 0.0 0.00 0.01 0.01 84 1019.3
20260507004743 57 188 1.0 1.0 0.00 0.01 0.01 83 1018.9
20260507004241 57 228 0.0 0.0 0.00 0.01 0.01 85 1018.9
20260507003736 57 149 2.0 2.0 0.00 0.01 0.01 84 1019.3
20260507003232 57 195 1.0 1.0 0.00 0.01 0.01 85 1018.9
20260507002728 57 169 3.0 3.0 0.00 0.01 0.01 84 1018.9
20260507002224 58 162 3.0 3.0 0.00 0.01 0.01 84 1018.9
20260507001721 58 195 3.0 5.0 0.00 0.01 0.01 83 1018.9
20260507001219 58 218 1.0 2.0 0.00 0.01 0.01 83 1019.3
20260507000715 59 172 4.0 5.0 0.00 0.01 0.01 82 1018.9
20260507000212 59 207 1.0 1.0 0.00 0.01 0.01 81 1019.3
20260506235708 59 234 1.0 1.0 0.00 0.01 0.01 81 1018.9
20260506235203 59 269 0.0 0.0 0.00 0.01 0.01 82 1018.6
20260506234700 59 211 1.0 1.0 0.00 0.01 0.01 83 1018.6
20260506234157 59 182 3.0 5.0 0.00 0.01 0.01 80 1018.6
20260506233655 59 292 0.0 0.0 0.00 0.01 0.01 83 1018.9
20260506233151 59 158 2.0 3.0 0.00 0.01 0.01 80 1019.3
20260506232647 58 324 2.0 2.0 0.00 0.01 0.01 81 1018.9
20260506232143 58 211 0.0 1.0 0.00 0.01 0.01 82 1019.3
20260506231640 58 216 1.0 1.0 0.00 0.01 0.01 82 1019.3
20260506231139 58 275 1.0 2.0 0.00 0.01 0.01 80 1018.9
20260506230635 59 202 2.0 3.0 0.00 0.01 0.01 82 1019.3
20260506230132 59 176 1.0 1.0 0.00 0.01 0.01 82 1019.3
20260506225628 59 170 1.0 1.0 0.00 0.01 0.01 82 1019.3
20260506225125 59 233 0.0 0.0 0.00 0.01 0.01 81 1019.3
20260506224622 59 140 3.0 3.0 0.00 0.01 0.01 79 1019.3
20260506224118 59 285 0.0 0.0 0.00 0.01 0.01 82 1019.3
20260506223615 59 184 5.0 6.0 0.00 0.01 0.01 79 1019.3
20260506223111 60 228 1.0 2.0 0.00 0.01 0.01 77 1019.3
20260506222608 60 235 0.0 1.0 0.00 0.01 0.01 79 1019.3
20260506222104 60 259 0.0 0.0 0.00 0.01 0.01 81 1019.3
20260506221602 60 230 1.0 1.0 0.00 0.01 0.01 77 1018.9
20260506221100 60 242 0.0 0.0 0.00 0.01 0.01 79 1018.9
20260506220555 60 141 2.0 2.0 0.00 0.01 0.01 78 1018.9
20260506220051 60 227 0.0 0.0 0.00 0.01 0.01 77 1019.3
20260506215548 60 260 0.0 1.0 0.00 0.01 0.01 77 1019.3
20260506215044 60 238 0.0 0.0 0.00 0.01 0.01 78 1019.3
20260506214541 59 243 0.0 1.0 0.00 0.01 0.01 79 1019.3
20260506214038 60 175 3.0 3.0 0.00 0.01 0.01 79 1019.3
20260506213536 60 333 1.0 1.0 0.00 0.01 0.01 77 1019.3
20260506213033 60 183 1.0 1.0 0.00 0.01 0.01 77 1019.6
20260506212530 60 216 1.0 1.0 0.00 0.01 0.01 76 1019.3
20260506212025 59 196 3.0 3.0 0.00 0.01 0.01 78 1019.3
20260506211521 60 115 2.0 2.0 0.00 0.01 0.01 79 1019.3
20260506211018 60 211 2.0 2.0 0.00 0.01 0.01 76 1018.9
20260506210515 60 252 0.0 1.0 0.00 0.01 0.01 76 1019.3
20260506210011 60 213 1.0 2.0 0.00 0.01 0.01 78 1019.3
20260506205508 59 227 0.0 0.0 0.00 0.01 0.01 78 1019.3
20260506205003 59 216 0.0 1.0 0.00 0.01 0.01 79 1018.9
20260506204501 59 238 0.0 1.0 0.00 0.01 0.01 80 1018.9
20260506203953 59 92 5.0 6.0 0.00 0.01 0.01 80 1018.9
20260506203450 59 221 1.0 1.0 0.00 0.01 0.01 85 1018.9
20260506202947 58 127 3.0 3.0 0.00 0.01 0.01 85 1019.3
20260506202444 59 145 2.0 3.0 0.00 0.01 0.01 85 1018.9
20260506201940 58 204 0.0 0.0 0.00 0.01 0.01 84 1019.3
20260506201438 59 255 2.0 2.0 0.00 0.01 0.01 84 1018.9
20260506200934 58 207 0.0 0.0 0.00 0.01 0.01 83 1018.9
20260506200431 58 127 2.0 3.0 0.00 0.01 0.01 80 1018.9
20260506195927 58 202 2.0 2.0 0.00 0.01 0.01 81 1018.9
20260506195424 59 206 1.0 1.0 0.00 0.01 0.01 80 1018.9
20260506194921 59 254 0.0 0.0 0.00 0.01 0.01 78 1018.9
20260506194418 59 251 0.0 0.0 0.00 0.01 0.01 80 1018.9
20260506193915 59 156 1.0 1.0 0.00 0.01 0.01 79 1018.9
20260506193412 59 221 0.0 1.0 0.00 0.01 0.01 78 1018.9
20260506192908 58 303 1.0 1.0 0.00 0.01 0.01 83 1018.9
20260506192406 58 252 0.0 0.0 0.00 0.01 0.01 83 1019.3
20260506191902 58 155 3.0 5.0 0.00 0.01 0.01 81 1018.9
20260506191359 58 199 1.0 1.0 0.00 0.01 0.01 81 1018.9
20260506190856 58 314 0.0 1.0 0.00 0.01 0.01 82 1018.6
20260506190352 57 301 0.0 1.0 0.00 0.01 0.01 83 1018.9